Time,TemperatureF,DewpointF,PressureIn,WindDirection,WindDirectionDegrees,WindSpeedMPH,WindSpeedGustMPH,Humidity,HourlyPrecipIn,Conditions,Clouds,dailyrainin,SoftwareType,DateUTC
2013-05-10 00:00:00,20.0,18.0,-100.00,NNE,22,10.0,17.0,92,-99.99,,,-99.99,,2013-05-10 06:00:00,
2013-05-10 00:42:00,20.0,18.0,-100.00,NNE,22,10.0,17.0,92,-99.99,,,-99.99,,2013-05-10 06:42:00,
2013-05-10 00:52:00,20.0,18.0,-100.00,NNE,22,10.0,17.0,92,-99.99,,,-99.99,,2013-05-10 06:52:00,
2013-05-10 01:00:00,20.0,16.0,-100.00,NNE,28,11.0,16.0,84,-99.99,,,-99.99,,2013-05-10 07:00:00,
2013-05-10 01:42:00,20.0,16.0,-100.00,NNE,28,11.0,16.0,84,-99.99,,,-99.99,,2013-05-10 07:42:00,
2013-05-10 01:52:00,20.0,16.0,-100.00,NNE,28,11.0,16.0,84,-99.99,,,-99.99,,2013-05-10 07:52:00,
2013-05-10 02:00:00,20.0,16.0,-100.00,NNE,16,12.0,19.0,84,-99.99,,,-99.99,,2013-05-10 08:00:00,
2013-05-10 02:42:00,20.0,16.0,-100.00,NNE,16,12.0,19.0,84,-99.99,,,-99.99,,2013-05-10 08:42:00,
2013-05-10 02:52:00,20.0,16.0,-100.00,NNE,16,12.0,19.0,84,-99.99,,,-99.99,,2013-05-10 08:52:00,
2013-05-10 03:00:00,19.0,15.0,-100.00,NNE,15,13.0,18.0,85,-99.99,,,-99.99,,2013-05-10 09:00:00,
2013-05-10 03:43:00,19.0,15.0,-100.00,NNE,15,13.0,18.0,85,-99.99,,,-99.99,,2013-05-10 09:43:00,
2013-05-10 03:52:00,19.0,15.0,-100.00,NNE,15,13.0,18.0,85,-99.99,,,-99.99,,2013-05-10 09:52:00,
2013-05-10 04:00:00,20.0,13.0,-100.00,NNE,24,14.0,18.0,73,-99.99,,,-99.99,,2013-05-10 10:00:00,
2013-05-10 04:42:00,20.0,13.0,-100.00,NNE,24,14.0,18.0,73,-99.99,,,-99.99,,2013-05-10 10:42:00,
2013-05-10 04:52:00,20.0,13.0,-100.00,NNE,24,14.0,18.0,73,-99.99,,,-99.99,,2013-05-10 10:52:00,
2013-05-10 05:00:00,20.0,11.0,-100.00,NNE,19,14.0,17.0,68,-99.99,,,-99.99,,2013-05-10 11:00:00,
2013-05-10 05:42:00,20.0,11.0,-100.00,NNE,19,14.0,17.0,68,-99.99,,,-99.99,,2013-05-10 11:42:00,
2013-05-10 05:51:00,20.0,11.0,-100.00,NNE,19,14.0,17.0,68,-99.99,,,-99.99,,2013-05-10 11:51:00,
2013-05-10 06:00:00,20.0,10.0,-100.00,North,5,13.0,19.0,64,-99.99,,,-99.99,,2013-05-10 12:00:00,
2013-05-10 06:42:00,20.0,10.0,-100.00,North,5,13.0,19.0,64,-99.99,,,-99.99,,2013-05-10 12:42:00,
2013-05-10 06:52:00,20.0,10.0,-100.00,North,5,13.0,19.0,64,-99.99,,,-99.99,,2013-05-10 12:52:00,
2013-05-10 07:00:00,20.0,11.0,-100.00,NNE,17,12.0,19.0,66,-99.99,,,-99.99,,2013-05-10 13:00:00,
2013-05-10 07:42:00,20.0,11.0,-100.00,NNE,17,12.0,19.0,66,-99.99,,,-99.99,,2013-05-10 13:42:00,
2013-05-10 07:52:00,20.0,11.0,-100.00,NNE,17,12.0,19.0,66,-99.99,,,-99.99,,2013-05-10 13:52:00,
2013-05-10 08:00:00,22.0,14.0,-100.00,North,7,13.0,21.0,71,-99.99,,,-99.99,,2013-05-10 14:00:00,
2013-05-10 08:42:00,22.0,14.0,-100.00,North,7,13.0,21.0,71,-99.99,,,-99.99,,2013-05-10 14:42:00,
2013-05-10 08:52:00,22.0,14.0,-100.00,North,7,13.0,21.0,71,-99.99,,,-99.99,,2013-05-10 14:52:00,
2013-05-10 09:00:00,22.0,16.0,-100.00,North,9,10.0,19.0,74,-99.99,,,-99.99,,2013-05-10 15:00:00,
2013-05-10 09:42:00,22.0,16.0,-100.00,North,9,10.0,19.0,74,-99.99,,,-99.99,,2013-05-10 15:42:00,
2013-05-10 09:53:00,22.0,16.0,-100.00,North,9,10.0,19.0,74,-99.99,,,-99.99,,2013-05-10 15:53:00,
2013-05-10 10:00:00,23.0,17.0,-100.00,North,356,8.0,17.0,74,-99.99,,,-99.99,,2013-05-10 16:00:00,
2013-05-10 10:43:00,23.0,17.0,-100.00,North,356,8.0,17.0,74,-99.99,,,-99.99,,2013-05-10 16:43:00,
2013-05-10 10:52:00,23.0,17.0,-100.00,North,356,8.0,17.0,74,-99.99,,,-99.99,,2013-05-10 16:52:00,
2013-05-10 11:00:00,-999.0,-99.9,-100.00,NNW,330,4.0,13.0,69,-99.99,,,-99.99,,2013-05-10 17:00:00,
2013-05-10 11:42:00,26.0,18.0,-100.00,NNW,330,4.0,13.0,69,-99.99,,,-99.99,,2013-05-10 17:42:00,
2013-05-10 11:52:00,26.0,18.0,-100.00,NNW,330,4.0,13.0,69,-99.99,,,-99.99,,2013-05-10 17:52:00,
2013-05-10 12:00:00,28.0,18.0,-100.00,NNW,331,7.0,15.0,65,-99.99,,,-99.99,,2013-05-10 18:00:00,
2013-05-10 12:43:00,28.0,18.0,-100.00,NNW,331,7.0,15.0,65,-99.99,,,-99.99,,2013-05-10 18:43:00,
2013-05-10 12:54:00,28.0,18.0,-100.00,NNW,331,7.0,15.0,65,-99.99,,,-99.99,,2013-05-10 18:54:00,
2013-05-10 13:00:00,25.0,19.0,-100.00,NNE,18,16.0,34.0,78,-99.99,,,-99.99,,2013-05-10 19:00:00,
2013-05-10 13:42:00,25.0,19.0,-100.00,NNE,18,16.0,34.0,78,-99.99,,,-99.99,,2013-05-10 19:42:00,
2013-05-10 13:52:00,25.0,19.0,-100.00,NNE,18,16.0,34.0,78,-99.99,,,-99.99,,2013-05-10 19:52:00,
2013-05-10 14:00:00,23.0,20.0,-100.00,North,358,15.0,34.0,87,-99.99,,,-99.99,,2013-05-10 20:00:00,
2013-05-10 14:42:00,23.0,20.0,-100.00,North,358,15.0,34.0,87,-99.99,,,-99.99,,2013-05-10 20:42:00,
2013-05-10 14:52:00,23.0,20.0,-100.00,North,358,15.0,34.0,87,-99.99,,,-99.99,,2013-05-10 20:52:00,
2013-05-10 15:00:00,25.0,20.0,-100.00,NW,322,12.0,20.0,80,-99.99,,,-99.99,,2013-05-10 21:00:00,
2013-05-10 15:43:00,25.0,20.0,-100.00,NW,322,12.0,20.0,80,-99.99,,,-99.99,,2013-05-10 21:43:00,
2013-05-10 15:52:00,25.0,20.0,-100.00,NW,322,12.0,20.0,80,-99.99,,,-99.99,,2013-05-10 21:52:00,
2013-05-10 16:00:00,23.0,19.0,-100.00,NNW,343,12.0,22.0,85,-99.99,,,-99.99,,2013-05-10 22:00:00,
2013-05-10 16:42:00,23.0,19.0,-100.00,NNW,343,12.0,22.0,85,-99.99,,,-99.99,,2013-05-10 22:42:00,
2013-05-10 16:52:00,23.0,19.0,-100.00,NNW,343,12.0,22.0,85,-99.99,,,-99.99,,2013-05-10 22:52:00,
2013-05-10 17:00:00,25.0,19.0,-100.00,NNE,15,11.0,20.0,75,-99.99,,,-99.99,,2013-05-10 23:00:00,
2013-05-10 17:42:00,25.0,19.0,-100.00,NNE,15,11.0,20.0,75,-99.99,,,-99.99,,2013-05-10 23:42:00,
2013-05-10 17:52:00,25.0,19.0,-100.00,NNE,15,11.0,20.0,75,-99.99,,,-99.99,,2013-05-10 23:52:00,
2013-05-10 18:00:00,25.0,21.0,-100.00,NNE,21,12.0,25.0,81,-99.99,,,-99.99,,2013-05-11 00:00:00,
2013-05-10 18:42:00,25.0,21.0,-100.00,NNE,21,12.0,25.0,81,-99.99,,,-99.99,,2013-05-11 00:42:00,
2013-05-10 18:52:00,25.0,21.0,-100.00,NNE,21,12.0,25.0,81,-99.99,,,-99.99,,2013-05-11 00:52:00,
2013-05-10 19:00:00,24.0,20.0,-100.00,North,4,9.0,19.0,83,-99.99,,,-99.99,,2013-05-11 01:00:00,
2013-05-10 19:42:00,24.0,20.0,-100.00,North,4,9.0,19.0,83,-99.99,,,-99.99,,2013-05-11 01:42:00,
2013-05-10 19:52:00,24.0,20.0,-100.00,North,4,9.0,19.0,83,-99.99,,,-99.99,,2013-05-11 01:52:00,
2013-05-10 20:00:00,25.0,20.0,-100.00,NNW,330,5.0,13.0,81,-99.99,,,-99.99,,2013-05-11 02:00:00,
2013-05-10 20:42:00,25.0,20.0,-100.00,NNW,330,5.0,13.0,81,-99.99,,,-99.99,,2013-05-11 02:42:00,
2013-05-10 20:52:00,25.0,20.0,-100.00,NNW,330,5.0,13.0,81,-99.99,,,-99.99,,2013-05-11 02:52:00,
2013-05-10 21:00:00,24.0,21.0,-100.00,NNE,15,6.0,16.0,88,-99.99,,,-99.99,,2013-05-11 03:00:00,
2013-05-10 21:43:00,24.0,21.0,-100.00,NNE,15,6.0,16.0,88,-99.99,,,-99.99,,2013-05-11 03:43:00,
2013-05-10 21:53:00,24.0,21.0,-100.00,NNE,15,6.0,16.0,88,-99.99,,,-99.99,,2013-05-11 03:53:00,
2013-05-10 22:00:00,22.0,20.0,-100.00,NNE,14,15.0,35.0,91,-99.99,,,-99.99,,2013-05-11 04:00:00,
2013-05-10 22:43:00,22.0,20.0,-100.00,NNE,14,15.0,35.0,91,-99.99,,,-99.99,,2013-05-11 04:43:00,
2013-05-10 22:52:00,22.0,20.0,-100.00,NNE,14,15.0,35.0,91,-99.99,,,-99.99,,2013-05-11 04:52:00,
2013-05-10 23:00:00,23.0,18.0,-100.00,NNE,26,13.0,21.0,81,-99.99,,,-99.99,,2013-05-11 05:00:00,
2013-05-10 23:42:00,23.0,18.0,-100.00,NNE,26,13.0,21.0,81,-99.99,,,-99.99,,2013-05-11 05:42:00,
2013-05-10 23:52:00,23.0,18.0,-100.00,NNE,26,13.0,21.0,81,-99.99,,,-99.99,,2013-05-11 05:52:00,